"Pseudo-MPEC" for P22oEGl

Created 2026 Jul 26 18:35:15 UT using Find_Orb

Click here for an explanation of pseudo-MPECs

 
 Astrometry: 
     P22oEGl 0C2026 06 27.58673401 44 33.935+09 54 22.94   ~7PMZ 21.14GVNEOCPF51
     P22oEGl 0C2026 06 27.59130401 44 34.506+09 54 27.73   ~7PMZ 20.56GVNEOCPF51
     P22oEGl 0C2026 06 27.59588201 44 35.104+09 54 32.39   ~7PMZ 21.05GVNEOCPF51
     P22oEGl 0C2026 06 27.60045501 44 35.676+09 54 37.18   ~7PMZ 21.58GVNEOCPF51
     P22oEGl*0C2026 07 25.60633602 41 02.544+17 15 12.36   ~7PKo 21.72wXNEOCPF52
     P22oEGl 0C2026 07 25.61013402 41 02.966+17 15 15.56   ~7PKo 21.20wXNEOCPF52
     P22oEGl 0C2026 07 25.61396802 41 03.388+17 15 18.93   ~7PKo 21.32wXNEOCPF52
     P22oEGl 0C2026 07 25.61778102 41 03.806+17 15 22.05   ~7PKo 21.28wXNEOCPF52

Station data:
(F51) Pan-STARRS 1, Haleakala  (N20.707234 W156.255910)  US/Hawaii.
   Observers J. Herman, T. Lowe, P. Minguez, A. Schultz, I. Smith. Measurers
   K. Chambers, T. de Boer, J. Fairlamb, H. Gao, M. Huber, C.-C. Lin, E.
   Magnier, Y. Ramanjooloo, R. Wainscoat, R. Weryk. 1.8-m Ritchey-Chrétien +
   CCD.
(F52) Pan-STARRS 2, Haleakala  (N20.707382 W156.255910)  US/Hawaii.
   Observers J. Herman, T. Lowe, P. Minguez, A. Schultz, I. Smith. Measurers
   K. Chambers, T. de Boer, J. Fairlamb, H. Gao, M. Huber, C.-C. Lin, E.
   Magnier, Y. Ramanjooloo, R. Wainscoat, R. Weryk. 1.8-m Ritchey-Chrétien +
   CCD.

Orbital elements:  P22oEGl
   Perihelion 2026 Jul 11.592970 TT = 14:13:52.6 (JD 2461233.092970)
Epoch 2026 Jul 25.0 TT = JDT 2461246.5   Earth MOID: 0.7373      AutoNEOCP
M   3.874315568                     (J2000 ecliptic)
n   0.288976431    Peri.    1.511575
a   2.265832318    Node     0.223352
e   0.23172290     Incl.   10.041165
P   3.41069        H   17.50    G   0.15   q 1.740787074  Q 2.790877562
From 8 observations 2026 June 27-July 25; mean residual 0".26
Residuals in arcseconds: 
260627 F51  .38-  .32-    260627 F51  .39+  .32+    260725 F52  .10-  .02-    
260627 F51  .26-  .06-    260725 F52  .33+  .28+    260725 F52  .37-  .33-    
260627 F51  .25+  .06+    260725 F52  .14+  .06+    

Ephemerides (geocentric):
Date (UTC) HH   RA             Dec           delta  r     elong  mag
---- --------  ------------   ------------  ------ ------ -----  ---
2026 07 26 19  02 43 20.033   +17 32 51.16  1.6114 1.7434  79.6 21.2
2026 07 26 20  02 43 24.864   +17 33 28.27  1.6110 1.7434  79.7 21.2
2026 07 26 21  02 43 29.693   +17 34 05.38  1.6107 1.7434  79.7 21.2
2026 07 26 22  02 43 34.522   +17 34 42.48  1.6103 1.7434  79.7 21.2
2026 07 26 23  02 43 39.350   +17 35 19.58  1.6100 1.7435  79.7 21.2
2026 07 27 00  02 43 44.177   +17 35 56.67  1.6097 1.7435  79.7 21.2
2026 07 27 01  02 43 49.004   +17 36 33.75  1.6093 1.7435  79.8 21.2
2026 07 27 02  02 43 53.829   +17 37 10.83  1.6090 1.7435  79.8 21.2
2026 07 27 03  02 43 58.654   +17 37 47.90  1.6086 1.7435  79.8 21.2
2026 07 27 04  02 44 03.479   +17 38 24.96  1.6083 1.7435  79.8 21.2
2026 07 27 05  02 44 08.302   +17 39 02.02  1.6079 1.7435  79.8 21.2
2026 07 27 06  02 44 13.125   +17 39 39.07  1.6076 1.7436  79.8 21.2
2026 07 27 07  02 44 17.947   +17 40 16.12  1.6073 1.7436  79.9 21.2
2026 07 27 08  02 44 22.768   +17 40 53.15  1.6069 1.7436  79.9 21.2
2026 07 27 09  02 44 27.588   +17 41 30.19  1.6066 1.7436  79.9 21.2
2026 07 27 10  02 44 32.408   +17 42 07.21  1.6062 1.7436  79.9 21.2
2026 07 27 11  02 44 37.227   +17 42 44.23  1.6059 1.7436  79.9 21.2
2026 07 27 12  02 44 42.045   +17 43 21.24  1.6055 1.7436  80.0 21.2
2026 07 27 13  02 44 46.863   +17 43 58.25  1.6052 1.7437  80.0 21.2
2026 07 27 14  02 44 51.679   +17 44 35.25  1.6049 1.7437  80.0 21.2
2026 07 27 15  02 44 56.495   +17 45 12.25  1.6045 1.7437  80.0 21.2
2026 07 27 16  02 45 01.310   +17 45 49.23  1.6042 1.7437  80.0 21.2
2026 07 27 17  02 45 06.125   +17 46 26.21  1.6038 1.7437  80.0 21.2
2026 07 27 18  02 45 10.938   +17 47 03.19  1.6035 1.7437  80.1 21.2
2026 07 27 19  02 45 15.751   +17 47 40.16  1.6032 1.7437  80.1 21.2
2026 07 27 20  02 45 20.563   +17 48 17.12  1.6028 1.7438  80.1 21.2
2026 07 27 21  02 45 25.375   +17 48 54.08  1.6025 1.7438  80.1 21.2
2026 07 27 22  02 45 30.185   +17 49 31.03  1.6021 1.7438  80.1 21.2
2026 07 27 23  02 45 34.995   +17 50 07.97  1.6018 1.7438  80.2 21.2
2026 07 28 00  02 45 39.804   +17 50 44.91  1.6014 1.7438  80.2 21.2
2026 07 28 01  02 45 44.612   +17 51 21.84  1.6011 1.7438  80.2 21.2
2026 07 28 02  02 45 49.420   +17 51 58.76  1.6008 1.7439  80.2 21.2
2026 07 28 03  02 45 54.227   +17 52 35.68  1.6004 1.7439  80.2 21.2
2026 07 28 04  02 45 59.033   +17 53 12.59  1.6001 1.7439  80.3 21.2
2026 07 28 05  02 46 03.838   +17 53 49.49  1.5997 1.7439  80.3 21.2
2026 07 28 06  02 46 08.642   +17 54 26.39  1.5994 1.7439  80.3 21.2
2026 07 28 07  02 46 13.446   +17 55 03.28  1.5990 1.7439  80.3 21.2
2026 07 28 08  02 46 18.249   +17 55 40.17  1.5987 1.7439  80.3 21.2
2026 07 28 09  02 46 23.051   +17 56 17.05  1.5984 1.7440  80.3 21.2
2026 07 28 10  02 46 27.852   +17 56 53.92  1.5980 1.7440  80.4 21.2
2026 07 28 11  02 46 32.652   +17 57 30.79  1.5977 1.7440  80.4 21.2
2026 07 28 12  02 46 37.452   +17 58 07.65  1.5973 1.7440  80.4 21.2
2026 07 28 13  02 46 42.251   +17 58 44.50  1.5970 1.7440  80.4 21.2
2026 07 28 14  02 46 47.049   +17 59 21.35  1.5967 1.7440  80.4 21.2
2026 07 28 15  02 46 51.847   +17 59 58.19  1.5963 1.7441  80.5 21.2
2026 07 28 16  02 46 56.643   +18 00 35.03  1.5960 1.7441  80.5 21.2
2026 07 28 17  02 47 01.439   +18 01 11.86  1.5956 1.7441  80.5 21.2
2026 07 28 18  02 47 06.234   +18 01 48.68  1.5953 1.7441  80.5 21.2